Location: Byhalia Creek
(34.8270°N, 89.8040°W)
Time: 20:18:00
(UTC+00:00)

Cosmos 1553 Rocket - Pass Details

Date: 22 April 2026
Orbit: 942 x 1006 km, 82.9° (Epoch: 21 May)

Event Time Altitude Azimuth Distance (km) Brightness Sun altitude
Exits shadow 09:38:04 24° 197° (SSW) 1,877 5.1 -19.7°
Maximum altitude 09:41:57 72° 277° (W) 1,016 3.9 -19.1°
Drops below altitude 10° 09:48:12 10° 2° (N) 2,736 6.8 -18.0°
Sets 09:50:46 0° 4° (N) 3,697 7.5 -17.5°
